Change the Weather History Date:

Monday, October 8, 2012

  Actual Average Record
Temperature  
Mean Temperature 43 °F -  
Max Temperature 69 °F - 81 °F (2003)
Min Temperature 17 °F - 17 °F (2012)
Degree Days  
Heating Degree Days 22    
Month to date heating degree days 163  
Cooling Degree Days 0    
Month to date cooling degree days 0  
Moisture  
Dew Point 13 °F    
Average Humidity 44    
Maximum Humidity 85    
Minimum Humidity 9    
Precipitation  
Precipitation 0.00 in - 0.54 in (2006)
Month to date precipitation 0.09  
Year to date precipitation 8.74  
Sea Level Pressure  
Sea Level Pressure 29.95 in    
Wind  
Wind Speed 5 mph (East)    
Max Wind Speed 16 mph    
Max Gust Speed 22 mph    
Visibility 10 miles    
Events      
T = Trace of Precipitation, MM = Missing Value Source: NWS Daily Summary

Daily Weather History Graph

Daily Weather History Graph

Search for Another Location

Airport or City:

Trip Planner

Search our weather history database for the weather conditions in past years. The results will help you decide how hot, cold, wet, or windy it might be!

Date:

Astronomy

Oct. 08, 2012 Rise Set
Actual Time 6:57 AM MDT 6:25 PM MDT
Civil Twilight 6:31 AM MDT 6:52 PM MDT
Nautical Twilight 6:00 AM MDT 7:23 PM MDT
Astronomical Twilight 5:29 AM MDT 7:54 PM MDT
Moon No Moon Rise 2:14 PM MDT (10/8)
Length of Visible Light 12h 21m
Length of Day
11h 27m
Last Quarter, 46% of the Moon is Illuminated
Oct 8
Last Quarter
Oct 15
New
Oct 21
First Quarter
Oct 29
Full
Nov 6
Last Quarter

Hourly Weather History & Observations

Time (MDT) Temp. Windchill Dew Point Humidity Pressure Visibility Wind Dir Wind Speed Gust Speed Precip Events Conditions
12:55 AM 21.0 °F 16.2 °F 12.9 °F 71% 30.08 in 10.0 mi North 3.5 mph - N/A   Clear
1:55 AM 19.9 °F 14.9 °F 14.0 °F 78% 30.08 in 10.0 mi North 3.5 mph - N/A   Clear
2:55 AM 19.0 °F - 14.0 °F 81% 30.07 in 10.0 mi Calm Calm - N/A   Clear
3:55 AM 18.0 °F 9.8 °F 14.0 °F 84% 30.06 in 10.0 mi North 5.8 mph - N/A   Clear
4:55 AM 19.0 °F 10.0 °F 15.1 °F 85% 30.05 in 10.0 mi North 6.9 mph - N/A   Clear
5:55 AM 19.0 °F 10.0 °F 15.1 °F 85% 30.05 in 10.0 mi North 6.9 mph - N/A   Clear
6:55 AM 18.0 °F 9.8 °F 14.0 °F 84% 30.11 in 10.0 mi NNW 5.8 mph - N/A   Clear
7:55 AM 28.0 °F 22.8 °F 19.9 °F 72% 30.09 in 10.0 mi North 4.6 mph - N/A   Clear
8:55 AM 44.1 °F - 19.9 °F 38% 30.04 in 10.0 mi Calm Calm - N/A   Clear
9:55 AM 51.1 °F - 19.0 °F 28% 30.02 in 10.0 mi Calm Calm - N/A   Clear
10:55 AM 60.1 °F - 12.9 °F 16% 29.97 in 10.0 mi SE 6.9 mph - N/A   Clear
11:55 AM 64.0 °F - 7.0 °F 11% 29.94 in 10.0 mi South 10.4 mph 18.4 mph N/A   Clear
12:55 PM 66.0 °F - 8.1 °F 10% 29.90 in 10.0 mi South 11.5 mph 17.3 mph N/A   Clear
2:55 PM 68.0 °F - 7.0 °F 9% 29.85 in 10.0 mi South 10.4 mph - N/A   Clear
3:55 PM 68.0 °F - 7.0 °F 9% 29.84 in 10.0 mi SSW 9.2 mph 20.7 mph N/A   Clear
4:55 PM 66.9 °F - 8.1 °F 10% 29.82 in 10.0 mi South 13.8 mph - N/A   Clear
5:55 PM 63.0 °F - 10.9 °F 13% 29.84 in 10.0 mi South 10.4 mph - N/A   Clear
6:55 PM 51.1 °F - 12.0 °F 21% 29.89 in 10.0 mi SE 6.9 mph - N/A   Clear
7:55 PM 48.9 °F - 12.9 °F 24% 29.87 in 10.0 mi SSE 6.9 mph - N/A   Clear
8:55 PM 46.0 °F 42.5 °F 16.0 °F 30% 29.84 in 10.0 mi SE 6.9 mph - N/A   Clear
9:55 PM 32.0 °F - 14.0 °F 48% 29.87 in 10.0 mi Calm Calm - N/A   Clear
10:55 PM 30.9 °F 25.2 °F 14.0 °F 50% 29.84 in 10.0 mi North 5.8 mph - N/A   Clear
11:55 PM 28.0 °F 21.7 °F 15.1 °F 58% 29.83 in 10.0 mi North 5.8 mph - N/A   Clear